PHKFD EHGG-EHEH

Flight info

Callsign PHKFD
Flight time 0h 54m
Altitude 10000
Route RUMER
Aircraft DA42/L-SDFGRY/C

Departure

Time 2026-05-04 18:50
Airport Groningen Airport Eelde (EHGG)

Arrival

Time 2026-05-04 19:44
Airport Eindhoven Airport (EHEH)
Time Latitude Longitude Altitude Speed Heading
2026-05-04 18:39 53.13064 6.58380 14 ft 0 kts 277°
2026-05-04 18:45 53.13062 6.58364 14 ft 1 kts 260°
2026-05-04 18:45 53.13015 6.58318 15 ft 12 kts 217°
2026-05-04 18:46 53.12980 6.58336 14 ft 17 kts 128°
2026-05-04 18:46 53.12916 6.58419 14 ft 16 kts 194°
2026-05-04 18:46 53.12816 6.58299 14 ft 20 kts 218°
2026-05-04 18:46 53.12731 6.58226 14 ft 13 kts 146°
2026-05-04 18:47 53.12687 6.58281 15 ft 1 kts 144°
2026-05-04 18:47 53.12678 6.58293 15 ft 3 kts 142°
2026-05-04 18:47 53.12660 6.58316 15 ft 6 kts 142°
2026-05-04 18:47 53.12606 6.58302 14 ft 11 kts 222°
2026-05-04 18:48 53.12542 6.58173 14 ft 17 kts 227°
2026-05-04 18:48 53.12461 6.57998 14 ft 21 kts 232°
2026-05-04 18:48 53.12360 6.57849 16 ft 20 kts 181°
2026-05-04 18:48 53.12215 6.57809 20 ft 22 kts 187°
2026-05-04 18:49 53.12053 6.57769 18 ft 25 kts 192°
2026-05-04 18:49 53.11916 6.57765 21 ft 15 kts 80°
2026-05-04 18:49 53.12063 6.58103 23 ft 63 kts 52°
2026-05-04 18:49 53.12365 6.58788 151 ft 79 kts 52°
2026-05-04 18:50 53.12697 6.59559 399 ft 82 kts 53°
2026-05-04 18:50 53.13036 6.60340 654 ft 84 kts 54°
2026-05-04 18:50 53.13321 6.61233 881 ft 89 kts 60°
2026-05-04 18:50 53.13599 6.62130 1136 ft 90 kts 59°
2026-05-04 18:51 53.13923 6.63079 1308 ft 104 kts 57°
2026-05-04 18:51 53.14330 6.64225 1316 ft 122 kts 58°
2026-05-04 18:51 53.14763 6.65463 1480 ft 124 kts 55°
2026-05-04 18:51 53.15184 6.66679 1700 ft 121 kts 58°
2026-05-04 18:52 53.15618 6.67929 1837 ft 127 kts 56°
2026-05-04 18:52 53.16059 6.69187 1998 ft 127 kts 57°
2026-05-04 18:52 53.16512 6.70480 2177 ft 129 kts 57°
2026-05-04 18:52 53.16901 6.71849 2355 ft 135 kts 79°
2026-05-04 18:53 53.16703 6.73344 2540 ft 140 kts 123°
2026-05-04 18:53 53.15925 6.74236 2746 ft 137 kts 170°
2026-05-04 18:53 53.15006 6.74073 2966 ft 133 kts 202°
2026-05-04 18:53 53.14096 6.73914 3165 ft 136 kts 166°
2026-05-04 18:54 53.13370 6.74879 3367 ft 138 kts 120°
2026-05-04 18:54 53.12797 6.76156 3512 ft 140 kts 147°
2026-05-04 18:54 53.11895 6.76484 3716 ft 132 kts 194°
2026-05-04 18:54 53.11035 6.75970 3888 ft 133 kts 205°
2026-05-04 18:55 53.10186 6.75395 4099 ft 130 kts 206°
2026-05-04 18:55 53.08502 6.74326 4458 ft 131 kts 205°
2026-05-04 18:55 53.07653 6.73804 4681 ft 130 kts 204°
2026-05-04 18:56 53.06788 6.73275 4840 ft 134 kts 203°
2026-05-04 18:56 53.05923 6.72752 5045 ft 132 kts 203°
2026-05-04 18:56 53.05044 6.72216 5201 ft 136 kts 202°
2026-05-04 18:56 53.04162 6.71685 5422 ft 133 kts 204°
2026-05-04 18:57 53.03306 6.71165 5613 ft 133 kts 204°
2026-05-04 18:57 53.02435 6.70637 5789 ft 134 kts 203°
2026-05-04 18:57 53.01562 6.70108 5996 ft 133 kts 203°
2026-05-04 18:57 53.00692 6.69582 6185 ft 133 kts 203°
2026-05-04 18:58 52.99819 6.69053 6384 ft 133 kts 203°
2026-05-04 18:58 52.98943 6.68523 6552 ft 135 kts 202°
2026-05-04 18:58 52.98054 6.67987 6723 ft 135 kts 204°
2026-05-04 18:58 52.97181 6.67461 6926 ft 133 kts 204°
2026-05-04 18:59 52.96298 6.66925 6989 ft 141 kts 204°
2026-05-04 18:59 52.95361 6.66356 6989 ft 149 kts 202°
2026-05-04 18:59 52.94368 6.65757 6991 ft 154 kts 202°
2026-05-04 18:59 52.93350 6.65146 6990 ft 156 kts 203°
2026-05-04 19:00 52.92335 6.64534 6987 ft 154 kts 204°
2026-05-04 19:00 52.91328 6.63927 6988 ft 155 kts 202°
2026-05-04 19:00 52.90314 6.63318 6988 ft 155 kts 203°
2026-05-04 19:00 52.89300 6.62707 6989 ft 155 kts 202°
2026-05-04 19:01 52.88282 6.62095 7002 ft 156 kts 202°
2026-05-04 19:01 52.87273 6.61488 6999 ft 157 kts 202°
2026-05-04 19:01 52.86248 6.60872 6996 ft 156 kts 202°
2026-05-04 19:01 52.85230 6.60262 6996 ft 155 kts 203°
2026-05-04 19:02 52.84216 6.59654 6994 ft 155 kts 204°
2026-05-04 19:02 52.83208 6.59049 6993 ft 154 kts 202°
2026-05-04 19:02 52.82198 6.58443 6985 ft 155 kts 200°
2026-05-04 19:02 52.81174 6.57830 6984 ft 157 kts 201°
2026-05-04 19:03 52.80143 6.57212 6993 ft 157 kts 201°
2026-05-04 19:03 52.79126 6.56604 6992 ft 158 kts 201°
2026-05-04 19:03 52.78092 6.55987 6989 ft 159 kts 201°
2026-05-04 19:03 52.77046 6.55367 6983 ft 161 kts 201°
2026-05-04 19:04 52.75990 6.54744 6987 ft 162 kts 201°
2026-05-04 19:04 52.74930 6.54115 6990 ft 162 kts 201°
2026-05-04 19:04 52.73873 6.53487 6991 ft 162 kts 201°
2026-05-04 19:04 52.72813 6.52860 6991 ft 162 kts 201°
2026-05-04 19:05 52.71767 6.52246 6988 ft 161 kts 201°
2026-05-04 19:05 52.70710 6.51623 6988 ft 161 kts 201°
2026-05-04 19:05 52.69654 6.50999 6988 ft 162 kts 201°
2026-05-04 19:05 52.68593 6.50374 6988 ft 162 kts 201°
2026-05-04 19:06 52.67528 6.49750 6983 ft 162 kts 201°
2026-05-04 19:06 52.66467 6.49128 6984 ft 162 kts 201°
2026-05-04 19:06 52.65405 6.48504 6983 ft 162 kts 201°
2026-05-04 19:06 52.64341 6.47881 6982 ft 162 kts 201°
2026-05-04 19:07 52.63283 6.47263 6980 ft 161 kts 201°
2026-05-04 19:07 52.62242 6.46653 6979 ft 161 kts 201°
2026-05-04 19:07 52.61184 6.46031 6979 ft 162 kts 201°
2026-05-04 19:07 52.60127 6.45411 6980 ft 161 kts 201°
2026-05-04 19:08 52.59071 6.44790 6987 ft 161 kts 201°
2026-05-04 19:08 52.58009 6.44165 6980 ft 163 kts 200°
2026-05-04 19:08 52.56938 6.43537 6980 ft 164 kts 200°
2026-05-04 19:08 52.55862 6.42907 6980 ft 164 kts 200°
2026-05-04 19:09 52.54784 6.42278 6979 ft 165 kts 200°
2026-05-04 19:09 52.53716 6.41657 6979 ft 165 kts 200°
2026-05-04 19:09 52.52634 6.41029 6979 ft 165 kts 200°
2026-05-04 19:09 52.51551 6.40401 6979 ft 165 kts 200°
2026-05-04 19:10 52.50465 6.39773 6983 ft 165 kts 200°
2026-05-04 19:10 52.49381 6.39147 6980 ft 165 kts 199°
2026-05-04 19:10 52.48294 6.38521 6980 ft 165 kts 199°
2026-05-04 19:10 52.47162 6.38223 6976 ft 165 kts 185°
2026-05-04 19:11 52.46070 6.37657 6976 ft 165 kts 203°
2026-05-04 19:11 52.45028 6.36921 6979 ft 165 kts 202°
2026-05-04 19:11 52.43957 6.36232 6979 ft 165 kts 201°
2026-05-04 19:11 52.42879 6.35582 6979 ft 165 kts 200°
2026-05-04 19:12 52.41800 6.34942 6978 ft 165 kts 200°
2026-05-04 19:12 52.39636 6.33659 6973 ft 165 kts 200°
2026-05-04 19:12 52.38554 6.33017 6973 ft 165 kts 200°
2026-05-04 19:13 52.37475 6.32376 6976 ft 165 kts 200°
2026-05-04 19:13 52.36411 6.31746 6976 ft 165 kts 200°
2026-05-04 19:13 52.35330 6.31106 6975 ft 165 kts 200°
2026-05-04 19:13 52.34250 6.30466 6976 ft 165 kts 200°
2026-05-04 19:14 52.33166 6.29825 6973 ft 166 kts 200°
2026-05-04 19:14 52.32083 6.29184 6973 ft 166 kts 200°
2026-05-04 19:14 52.31000 6.28544 6973 ft 166 kts 200°
2026-05-04 19:14 52.29917 6.27905 6971 ft 165 kts 200°
2026-05-04 19:15 52.28835 6.27266 6969 ft 166 kts 200°
2026-05-04 19:15 52.27750 6.26626 6970 ft 166 kts 200°
2026-05-04 19:15 52.26672 6.25989 6972 ft 165 kts 200°
2026-05-04 19:15 52.25600 6.25357 6970 ft 165 kts 200°
2026-05-04 19:16 52.24518 6.24719 6970 ft 166 kts 200°
2026-05-04 19:16 52.23435 6.24082 6970 ft 166 kts 200°
2026-05-04 19:16 52.22351 6.23443 6970 ft 166 kts 200°
2026-05-04 19:16 52.21268 6.22807 6970 ft 166 kts 200°
2026-05-04 19:17 52.20183 6.22169 6970 ft 166 kts 200°
2026-05-04 19:17 52.19098 6.21531 6970 ft 166 kts 200°
2026-05-04 19:17 52.18014 6.20894 6971 ft 166 kts 200°
2026-05-04 19:17 52.16944 6.20266 6970 ft 166 kts 200°
2026-05-04 19:18 52.15860 6.19631 6972 ft 166 kts 200°
2026-05-04 19:18 52.14775 6.18994 6972 ft 166 kts 200°
2026-05-04 19:18 52.13691 6.18358 6972 ft 166 kts 200°
2026-05-04 19:18 52.12606 6.17722 6972 ft 166 kts 200°
2026-05-04 19:19 52.11525 6.17089 6971 ft 166 kts 200°
2026-05-04 19:19 52.10437 6.16452 6975 ft 165 kts 200°
2026-05-04 19:19 52.09371 6.15829 6975 ft 165 kts 200°
2026-05-04 19:19 52.08289 6.15196 6972 ft 166 kts 200°
2026-05-04 19:20 52.07203 6.14561 6973 ft 166 kts 200°
2026-05-04 19:20 52.06120 6.13929 6975 ft 165 kts 200°
2026-05-04 19:20 52.05042 6.13300 6971 ft 165 kts 200°
2026-05-04 19:20 52.03960 6.12668 6974 ft 165 kts 200°
2026-05-04 19:21 52.02879 6.12039 6965 ft 165 kts 200°
2026-05-04 19:21 52.01796 6.11407 6965 ft 166 kts 200°
2026-05-04 19:21 52.00709 6.10773 6965 ft 166 kts 200°
2026-05-04 19:21 51.99620 6.10139 6966 ft 166 kts 199°
2026-05-04 19:22 51.98536 6.09508 6968 ft 165 kts 200°
2026-05-04 19:22 51.97470 6.08888 6968 ft 165 kts 200°
2026-05-04 19:22 51.96386 6.08257 6968 ft 165 kts 200°
2026-05-04 19:22 51.95301 6.07627 6967 ft 166 kts 199°
2026-05-04 19:23 51.94216 6.06998 6964 ft 166 kts 199°
2026-05-04 19:23 51.93131 6.06368 6965 ft 166 kts 200°
2026-05-04 19:23 51.92046 6.05738 6966 ft 166 kts 200°
2026-05-04 19:23 51.90958 6.05107 6971 ft 166 kts 200°
2026-05-04 19:24 51.89889 6.04488 6969 ft 165 kts 199°
2026-05-04 19:24 51.88806 6.03860 6975 ft 165 kts 199°
2026-05-04 19:24 51.87725 6.03233 6975 ft 165 kts 199°
2026-05-04 19:24 51.86647 6.02610 6976 ft 165 kts 199°
2026-05-04 19:25 51.85570 6.01987 6973 ft 164 kts 199°
2026-05-04 19:25 51.84492 6.01363 6973 ft 164 kts 199°
2026-05-04 19:25 51.83415 6.00741 6975 ft 164 kts 199°
2026-05-04 19:25 51.82338 6.00120 6974 ft 164 kts 199°
2026-05-04 19:26 51.81261 5.99499 6974 ft 164 kts 199°
2026-05-04 19:26 51.80200 5.98886 6975 ft 164 kts 199°
2026-05-04 19:26 51.79121 5.98263 6975 ft 164 kts 199°
2026-05-04 19:26 51.78043 5.97641 6975 ft 164 kts 199°
2026-05-04 19:27 51.76967 5.97022 6977 ft 164 kts 199°
2026-05-04 19:27 51.75890 5.96402 6977 ft 164 kts 199°
2026-05-04 19:27 51.74812 5.95781 6977 ft 164 kts 199°
2026-05-04 19:27 51.73734 5.95161 6976 ft 164 kts 199°
2026-05-04 19:28 51.72657 5.94544 6977 ft 164 kts 199°
2026-05-04 19:28 51.71580 5.93924 6977 ft 164 kts 199°
2026-05-04 19:28 51.70502 5.93304 6977 ft 164 kts 199°
2026-05-04 19:28 51.69441 5.92695 6977 ft 165 kts 199°
2026-05-04 19:29 51.68360 5.92075 6978 ft 165 kts 199°
2026-05-04 19:29 51.67280 5.91456 6977 ft 165 kts 199°
2026-05-04 19:29 51.66198 5.90836 6977 ft 165 kts 199°
2026-05-04 19:29 51.65117 5.90215 6978 ft 166 kts 199°
2026-05-04 19:30 51.64028 5.89592 6978 ft 166 kts 199°
2026-05-04 19:30 51.62937 5.88969 6978 ft 167 kts 199°
2026-05-04 19:30 51.61900 5.88146 6974 ft 168 kts 217°
2026-05-04 19:30 51.61064 5.86862 6976 ft 168 kts 225°
2026-05-04 19:31 51.60244 5.85523 6979 ft 168 kts 225°
2026-05-04 19:31 51.59422 5.84183 6979 ft 168 kts 225°
2026-05-04 19:31 51.58598 5.82846 6979 ft 168 kts 225°
2026-05-04 19:31 51.57775 5.81511 6981 ft 168 kts 225°
2026-05-04 19:32 51.56952 5.80178 6975 ft 168 kts 225°
2026-05-04 19:32 51.56125 5.78841 6960 ft 169 kts 225°
2026-05-04 19:32 51.55297 5.77502 6920 ft 170 kts 225°
2026-05-04 19:32 51.54434 5.76100 6545 ft 185 kts 225°
2026-05-04 19:33 51.53509 5.74599 6165 ft 191 kts 225°
2026-05-04 19:33 51.52721 5.72879 5776 ft 193 kts 245°
2026-05-04 19:33 51.52404 5.70797 5390 ft 193 kts 268°
2026-05-04 19:33 51.52616 5.68685 5015 ft 192 kts 291°
2026-05-04 19:34 51.53316 5.66877 4636 ft 191 kts 313°
2026-05-04 19:34 51.54225 5.65320 4253 ft 191 kts 315°
2026-05-04 19:34 51.55072 5.63699 3975 ft 186 kts 307°
2026-05-04 19:34 51.55813 5.62089 3972 ft 173 kts 307°
2026-05-04 19:35 51.56502 5.60578 3973 ft 167 kts 307°
2026-05-04 19:35 51.57196 5.59049 3811 ft 172 kts 307°
2026-05-04 19:35 51.57901 5.57482 3625 ft 174 kts 306°
2026-05-04 19:35 51.58374 5.55695 3452 ft 176 kts 281°
2026-05-04 19:36 51.58332 5.53738 3275 ft 177 kts 256°
2026-05-04 19:36 51.57773 5.51983 3096 ft 179 kts 230°
2026-05-04 19:36 51.56788 5.50795 2915 ft 177 kts 203°
2026-05-04 19:36 51.55622 5.50191 2759 ft 177 kts 206°
2026-05-04 19:37 51.54733 5.48882 2578 ft 174 kts 232°
2026-05-04 19:37 51.53907 5.47550 2410 ft 164 kts 218°
2026-05-04 19:37 51.53012 5.46467 2229 ft 158 kts 216°
2026-05-04 19:37 51.52152 5.45468 2049 ft 148 kts 215°
2026-05-04 19:38 51.51328 5.44541 1930 ft 140 kts 214°
2026-05-04 19:38 51.50512 5.43668 1467 ft 139 kts 213°
2026-05-04 19:38 51.49776 5.42855 1200 ft 120 kts 215°
2026-05-04 19:38 51.49100 5.42099 954 ft 118 kts 216°
2026-05-04 19:39 51.48447 5.41335 775 ft 112 kts 217°
2026-05-04 19:39 51.47859 5.40671 587 ft 97 kts 213°
2026-05-04 19:39 51.47323 5.40076 440 ft 92 kts 216°
2026-05-04 19:39 51.46799 5.39469 322 ft 93 kts 218°
2026-05-04 19:40 51.46270 5.38863 214 ft 95 kts 215°
2026-05-04 19:40 51.45751 5.38288 92 ft 83 kts 216°
2026-05-04 19:40 51.45314 5.37794 73 ft 84 kts 215°
2026-05-04 19:40 51.44771 5.37204 218 ft 102 kts 213°
2026-05-04 19:41 51.44168 5.36556 505 ft 106 kts 216°
2026-05-04 19:41 51.43560 5.35896 778 ft 105 kts 213°
2026-05-04 19:41 51.43168 5.35040 988 ft 104 kts 273°
2026-05-04 19:41 51.43632 5.34187 1028 ft 111 kts 351°
2026-05-04 19:42 51.44308 5.34693 1036 ft 116 kts 40°
2026-05-04 19:42 51.45048 5.35363 921 ft 128 kts 27°
2026-05-04 19:42 51.45824 5.36082 856 ft 130 kts 33°
2026-05-04 19:42 51.46508 5.36810 909 ft 96 kts 34°
2026-05-04 19:43 51.47000 5.37373 870 ft 82 kts 37°
2026-05-04 19:43 51.47001 5.38178 796 ft 92 kts 129°
2026-05-04 19:43 51.46414 5.38635 435 ft 91 kts 174°
2026-05-04 19:43 51.45846 5.38380 131 ft 84 kts 216°
2026-05-04 19:44 51.45426 5.37919 73 ft 55 kts 213°
2026-05-04 19:44 51.45182 5.37644 65 ft 38 kts 217°
2026-05-04 19:44 51.44986 5.37426 65 ft 31 kts 214°
2026-05-04 19:44 51.44822 5.37241 71 ft 27 kts 214°
2026-05-04 19:45 51.44747 5.37057 66 ft 19 kts 310°
2026-05-04 19:45 51.44814 5.36956 69 ft 8 kts 329°
2026-05-04 19:45 51.44872 5.36931 67 ft 10 kts 346°
2026-05-04 19:45 51.44949 5.36907 69 ft 12 kts 347°
2026-05-04 19:46 51.45037 5.36879 66 ft 13 kts 345°
2026-05-04 19:46 51.45132 5.36849 62 ft 15 kts 343°
2026-05-04 19:46 51.45234 5.36819 70 ft 15 kts 352°
2026-05-04 19:46 51.45341 5.36813 67 ft 16 kts 30°
2026-05-04 19:47 51.45433 5.36906 69 ft 16 kts 32°
2026-05-04 19:47 51.45501 5.37045 68 ft 16 kts 59°
2026-05-04 19:47 51.45552 5.37206 70 ft 17 kts 60°
2026-05-04 19:47 51.45606 5.37371 67 ft 11 kts 66°
2026-05-04 19:48 51.45608 5.37380 68 ft 5 kts 73°
2026-05-04 19:48 51.45635 5.37460 68 ft 10 kts 60°
2026-05-04 19:48 51.45674 5.37567 69 ft 12 kts 59°
2026-05-04 19:48 51.45727 5.37689 69 ft 14 kts 51°
2026-05-04 19:49 51.45767 5.37777 69 ft 5 kts 347°
2026-05-04 19:49 51.45771 5.37763 67 ft 0 kts 214°